Weather History for Phuket, Thailand

Change the Weather History Date:

Thursday, December 12, 2013

  Actual Average Record
Temperature  
Mean Temperature 81 °F -  
Max Temperature 88 °F 88 °F 95 °F (2002)
Min Temperature 74 °F 74 °F 69 °F (1999)
Cooling Degree Days 16    
Growing Degree Days 31 (Base 50)    
Moisture  
Dew Point 73 °F    
Average Humidity 73    
Maximum Humidity 83    
Minimum Humidity 55    
Precipitation  
Precipitation 0.00 in 0.08 in - ()
Sea Level Pressure  
Sea Level Pressure 29.76 in    
Wind  
Wind Speed 5 mph ()    
Max Wind Speed 12 mph    
Max Gust Speed -    
Visibility 4.8 miles    
Events      
Averages and records for this station are not official NWS values.
T = Trace of Precipitation, MM = Missing Value Source: Averaged Metar Reports

Daily Weather History Graph

Daily Weather History Graph

Search for Another Location

Airport:

Trip Planner

Search our weather history database for the weather conditions in past years. The results will help you decide how hot, cold, wet, or windy it might be!

Date:

Astronomy

Dec. 12, 2013 Rise Set
Actual Time 6:30 AM ICT 6:10 PM ICT
Civil Twilight 6:07 AM ICT 6:32 PM ICT
Nautical Twilight 5:41 AM ICT 6:59 PM ICT
Astronomical Twilight 5:15 AM ICT 7:25 PM ICT
Moon 2:20 PM ICT (12/12) 2:06 AM ICT (12/12)
Length of Visible Light 12h 24m
Length of Day
11h 39m
Waxing Gibbous, 76% of the Moon is Illuminated
Dec 12
Waxing Gibbous
Dec 17
Full
Dec 25
Last Quarter
Jan 1
New
Jan 8
First Quarter

Hourly Weather History & Observations

Time (ICT) Temp. Heat Index Dew Point Humidity Pressure Visibility Wind Dir Wind Speed Gust Speed Precip Events Conditions
12:00 AM 80.6 °F 84.6 °F 71.6 °F 74% 29.80 in 5.0 mi ENE 3.5 mph - N/A   Mostly Cloudy
12:30 AM 78.8 °F - 71.6 °F 78% 29.80 in 5.0 mi ENE 4.6 mph - N/A   Mostly Cloudy
1:00 AM 80 °F - 74 °F 77% 29.75 in 6 mi ENE 6.9 mph - -   Scattered Clouds
1:00 AM 78.8 °F - 71.6 °F 78% 29.77 in 5.0 mi ENE 5.8 mph - N/A   Mostly Cloudy
1:30 AM 78.8 °F - 71.6 °F 78% 29.77 in 5.0 mi ENE 4.6 mph - N/A   Mostly Cloudy
2:00 AM 78.8 °F - 71.6 °F 78% 29.74 in 5.0 mi ENE 4.6 mph - N/A   Mostly Cloudy
2:30 AM 78.8 °F - 71.6 °F 78% 29.74 in 5.0 mi Calm Calm - N/A   Mostly Cloudy
4:00 AM 79 °F - 74 °F 80% 29.70 in 6 mi Calm Calm - -   Scattered Clouds
4:00 AM 78.8 °F - 71.6 °F 78% 29.74 in 5.0 mi ENE 8.1 mph - N/A   Mostly Cloudy
5:30 AM 78.8 °F - 73.4 °F 83% 29.74 in 5.0 mi ENE 4.6 mph - N/A   Mostly Cloudy
6:00 AM 78.8 °F - 73.4 °F 83% 29.74 in 5.0 mi ENE 5.8 mph - N/A   Mostly Cloudy
6:30 AM 78.8 °F - 71.6 °F 78% 29.74 in 5.0 mi ENE 9.2 mph - N/A   Mostly Cloudy
7:00 AM 79 °F - 74 °F 79% 29.76 in 6 mi ENE 5.8 mph - -   Scattered Clouds
7:00 AM 78.8 °F - 71.6 °F 78% 29.77 in 5.0 mi ENE 6.9 mph - N/A   Mostly Cloudy
7:30 AM 80.6 °F 85.4 °F 73.4 °F 79% 29.77 in 5.0 mi East 5.8 mph - N/A   Mostly Cloudy
8:00 AM 80.6 °F 85.4 °F 73.4 °F 79% 29.80 in 5.0 mi ENE 6.9 mph - N/A   Mostly Cloudy
8:30 AM 80.6 °F 85.4 °F 73.4 °F 79% 29.80 in 4.3 mi ENE 5.8 mph - N/A   Mostly Cloudy
9:00 AM 80.6 °F 85.4 °F 73.4 °F 79% 29.83 in 4.3 mi ENE 8.1 mph - N/A   Mostly Cloudy
9:30 AM 80.6 °F 85.4 °F 73.4 °F 79% 29.83 in 4.3 mi NE 6.9 mph - N/A   Mostly Cloudy
10:00 AM 82.4 °F 88.2 °F 73.4 °F 74% 29.83 in 4.3 mi ENE 8.1 mph - N/A   Mostly Cloudy
10:30 AM 82.4 °F 88.2 °F 73.4 °F 74% 29.80 in 4.3 mi ENE 8.1 mph - N/A   Mostly Cloudy
11:00 AM 86.0 °F 93.4 °F 73.4 °F 66% 29.80 in 4.3 mi NE 8.1 mph - N/A   Mostly Cloudy
11:30 AM 84.2 °F 90.9 °F 73.4 °F 70% 29.80 in 4.3 mi NE 8.1 mph - N/A   Mostly Cloudy
12:00 PM 86.0 °F 93.4 °F 73.4 °F 66% 29.80 in 4.3 mi ENE 6.9 mph - N/A   Mostly Cloudy
12:30 PM 86.0 °F 91.8 °F 71.6 °F 62% 29.77 in 4.3 mi East 11.5 mph - N/A   Mostly Cloudy
1:00 PM 86 °F - 74 °F 61% 29.76 in 4 mi East 6.9 mph - -   Mist
1:00 PM 87.8 °F 93.8 °F 71.6 °F 58% 29.77 in 4.3 mi East 10.4 mph - N/A   Mostly Cloudy
1:30 PM 87.8 °F 95.6 °F 73.4 °F 62% 29.74 in 4.3 mi East 9.2 mph - N/A   Mostly Cloudy
2:00 PM 87.8 °F 93.8 °F 71.6 °F 58% 29.71 in 4.3 mi East 10.4 mph - N/A   Mostly Cloudy
2:30 PM 87.8 °F 93.8 °F 71.6 °F 58% 29.71 in - North - - N/A   Mostly Cloudy
3:00 PM 87.8 °F 93.8 °F 71.6 °F 58% 29.71 in 4.3 mi East 10.4 mph - N/A   Mostly Cloudy
3:30 PM 87.8 °F 93.8 °F 71.6 °F 58% 29.71 in 4.3 mi East 10.4 mph - N/A   Mostly Cloudy
4:00 PM 88 °F - 74 °F 55% 29.68 in 4 mi ENE 4.6 mph - -   Haze
4:00 PM 87.8 °F 93.8 °F 71.6 °F 58% 29.68 in 4.3 mi East 9.2 mph - N/A   Mostly Cloudy
4:30 PM 86.0 °F 91.8 °F 71.6 °F 62% 29.68 in 4.3 mi East 10.4 mph - N/A   Mostly Cloudy
5:00 PM 86.0 °F 91.8 °F 71.6 °F 62% 29.68 in 4.3 mi East 6.9 mph - N/A   Mostly Cloudy
5:30 PM 84.2 °F 89.6 °F 71.6 °F 66% 29.71 in 4.3 mi ESE 4.6 mph - N/A   Mostly Cloudy
6:00 PM 80.6 °F 85.4 °F 73.4 °F 79% 29.71 in 4.3 mi SSE 2.3 mph - N/A   Mostly Cloudy
6:30 PM 78.8 °F - 73.4 °F 83% 29.74 in 4.3 mi Calm Calm - N/A   Mostly Cloudy
7:00 PM 83 °F - 77 °F 78% 29.71 in 4 mi Calm Calm - -   Mist
7:00 PM 78.8 °F - 73.4 °F 83% 29.74 in 4.3 mi Calm Calm - N/A   Mostly Cloudy
7:30 PM 78.8 °F - 73.4 °F 83% 29.77 in 4.3 mi Calm Calm - N/A   Mostly Cloudy
8:00 PM 78.8 °F - 73.4 °F 83% 29.77 in 4.3 mi Variable 2.3 mph - N/A   Mostly Cloudy
8:30 PM 82.4 °F 88.2 °F 73.4 °F 74% 29.80 in 5.6 mi ENE 6.9 mph - N/A   Mostly Cloudy
9:00 PM 80.6 °F 85.4 °F 73.4 °F 79% 29.80 in 5.6 mi ENE 10.4 mph - N/A   Partly Cloudy
9:30 PM 80.6 °F 85.4 °F 73.4 °F 79% 29.80 in 5.6 mi ENE 9.2 mph - N/A   Mostly Cloudy
10:00 PM 82 °F - 75 °F 74% 29.77 in 6 mi ENE 3.5 mph - -   Scattered Clouds
10:00 PM 80.6 °F 85.4 °F 73.4 °F 79% 29.80 in 6.2 mi ENE 8.1 mph - N/A   Mostly Cloudy
10:30 PM 80.6 °F 85.4 °F 73.4 °F 79% 29.83 in 6.2 mi ENE 8.1 mph - N/A   Mostly Cloudy
11:00 PM 80.6 °F 85.4 °F 73.4 °F 79% 29.80 in 6.2 mi ENE 8.1 mph - N/A   Mostly Cloudy
11:30 PM 78.8 °F - 73.4 °F 83% 29.80 in 6.2 mi ENE 6.9 mph - N/A   Mostly Cloudy